Flag for U.S.A. Weather past 2 weeks in Toledo, Ohio, U.S.A.

Now
64 °F

Fog.


Feels Like: 64 °F
Forecast: 67 / 86 °F
Wind: No wind

Location: Toledo Suburban Airport

Current Time: Sep 1, 2015 at 6:11:19 AM

Latest Report: Sep 1, 2015 at 5:35 AM


Visibility: 0 mi

Pressure: 30.08 "Hg

Humidity: 92%

Dew point: 62 °F

Location of ToledoLocation

Historic Weather in Toledo — Graph

°F

Toledo temperature yesterday

Maximum temperature yesterday: 87 °F (at 3:35 PM)
Minimum temperature yesterday: 63 °F (at 6:15 AM)
Average temperature yesterday: 74 °F

Past Weeks' High & Low Weather Summary

 TemperatureHumidityPressure
High87 °F (Aug 31, 3:35 PM)93% (Aug 28, 2:34 AM)30.23 "Hg (Aug 28, 2:34 AM)
Low50 °F (Aug 28, 5:55 AM)36% (Aug 21, 4:55 PM)29.71 "Hg (Aug 20, 1:35 AM)
Average69 °F74%30.03 "Hg
* Reported Aug 17 4:15 AM — Sep 1 4:54 AM, Toledo, Weather by CustomWeather, © 2015

Note: Actual official high and low records may vary slightly from our data, if they occured in-between our weather recording intervals... More about our weather records

Advertising

Toledo weather history for previous 24 hours

 ConditionsComfort  
Time TempWeatherWind HumidityBarometerVisibility
4:54 AM
Tue, Sep 1
65 °FFog.No wind92%30.08 "Hg1 mi
4:35 AM65 °FFog.No wind92%30.08 "Hg3 mi
4:15 AM65 °FFog.No wind93%30.08 "Hg2 mi
3:54 AM66 °FFog.No wind92%30.08 "Hg0 mi
3:35 AM65 °FFog.No wind92%30.08 "Hg1 mi
3:15 AM66 °FFog.No wind93%30.08 "Hg1 mi
2:54 AM66 °FFog.No wind92%30.08 "Hg3 mi
2:35 AM66 °FFog.No wind91%30.08 "Hg3 mi
2:14 AM68 °FFog.No wind92%30.08 "Hg3 mi
1:55 AM67 °FFog.No wind92%30.09 "Hg4 mi
1:34 AM67 °FFog.No wind92%30.09 "Hg1 mi
1:15 AM67 °FFog.No wind92%30.09 "Hg1 mi
12:55 AM67 °FFog.No wind91%30.09 "Hg4 mi
11:35 PM
Mon, Aug 31
69 °FFog.No wind91%30.08 "Hg5 mi
10:55 PM69 °FFog.No wind90%30.08 "Hg5 mi
10:35 PM69 °FClear.No wind90%30.07 "Hg7 mi
10:15 PM71 °FClear.No wind89%30.07 "Hg7 mi
9:55 PM71 °FClear.No wind88%30.07 "Hg7 mi
9:35 PM72 °FClear.No wind87%30.07 "Hg7 mi
9:15 PM71 °FClear.No wind87%30.07 "Hg10 mi
8:55 PM72 °FSunny.No wind87%30.06 "Hg10 mi
8:35 PM74 °FSunny.No wind85%30.05 "Hg10 mi
8:15 PM75 °FSunny.No wind83%30.05 "Hg10 mi
7:55 PM78 °FSunny.No wind79%30.04 "Hg10 mi
7:35 PM81 °FSunny.No wind74%30.04 "Hg10 mi
6:55 PM85 °FSunny.No wind57%30.04 "Hg10 mi
5:35 PM86 °FSunny.3 mph51%30.04 "Hg10 mi
5:15 PM86 °FScattered clouds.7 mph53%30.04 "Hg10 mi
4:55 PM86 °FScattered clouds.3 mph52%30.04 "Hg10 mi
4:35 PM87 °FBroken clouds.8 mph52%30.05 "Hg10 mi
4:15 PM87 °FScattered clouds.7 mph51%30.05 "Hg10 mi
3:55 PM86 °FScattered clouds.7 mph52%30.06 "Hg10 mi
3:35 PM87 °FScattered clouds.9 mph53%30.07 "Hg10 mi
3:15 PM86 °FScattered clouds.6 mph55%30.07 "Hg10 mi
2:55 PM86 °FScattered clouds.6 mph54%30.07 "Hg10 mi
2:35 PM85 °FSunny.6 mph57%30.08 "Hg10 mi
2:15 PM86 °FScattered clouds.5 mph55%30.08 "Hg10 mi
1:55 PM85 °FBroken clouds.6 mph56%30.08 "Hg10 mi
1:35 PM85 °FBroken clouds.8 mph59%30.09 "Hg10 mi
1:15 PM84 °FBroken clouds.5 mph59%30.10 "Hg7 mi
12:55 PM83 °FScattered clouds.6 mph64%30.10 "Hg10 mi
12:35 PM83 °FSunny.No wind64%30.10 "Hg10 mi
12:15 PM80 °FScattered clouds.3 mph68%30.11 "Hg10 mi
11:55 AM80 °FScattered clouds.No wind69%30.12 "Hg10 mi
11:35 AM81 °FScattered clouds.6 mph68%30.12 "Hg7 mi
11:15 AM80 °FScattered clouds.5 mph71%30.11 "Hg7 mi
10:54 AM78 °FScattered clouds.5 mph80%30.11 "Hg7 mi
10:35 AM77 °FSunny.No wind81%30.11 "Hg5 mi
10:15 AM76 °FSunny.No wind84%30.10 "Hg5 mi
9:55 AM74 °FFog.No wind89%30.10 "Hg5 mi
9:15 AM71 °FFog.No wind92%30.10 "Hg4 mi
8:55 AM69 °FFog.No wind92%30.09 "Hg2 mi
8:35 AM68 °FFog.No wind92%30.09 "Hg1 mi
8:15 AM66 °FFog.No wind93%30.09 "Hg0 mi
7:55 AM65 °FFog.No wind93%30.09 "Hg0 mi
7:35 AM65 °FFog.No wind93%30.09 "Hg0 mi
7:15 AM64 °FFog.No wind93%30.08 "Hg0 mi
6:55 AM64 °FFog.No wind93%30.07 "Hg0 mi
6:35 AM63 °FFog.No wind93%30.06 "Hg0 mi
6:15 AM63 °FFog.No wind93%30.05 "Hg0 mi
Weather by CustomWeather, © 2015

See weather overviewHow to use our weather pages